M0NPQ Weather Reports


time (UTC)temp
C
wind
direction
speed
KPH
gust
KPH
rain 1hr
cm
rain 24hr
cm
rain mn
cm
humidity
%
barometer
mb
20260506134503 13 37 0.0 3.2 0.00 0.00 0.00 63 1012.7
20260506133818 13 252 0.0 3.2 0.00 0.00 0.00 63 1012.4
20260506132703 13 44 0.0 4.8 0.00 0.00 0.00 66 1012.6
20260506131803 13 70 0.0 3.2 0.00 0.00 0.00 67 1012.4
20260506130905 13 268 0.0 6.4 0.00 0.00 0.00 67 1012.3
20260506130003 13 153 0.0 3.2 0.00 0.00 0.00 67 1012.3
20260506125403 13 266 0.0 3.2 0.00 0.00 0.00 67 1012.2
20260506124503 13 299 0.0 3.2 0.00 0.00 0.00 68 1012.3
20260506123605 13 289 0.0 3.2 0.00 0.00 0.00 66 1012.2
20260506122703 13 251 0.0 3.2 0.00 0.00 0.00 65 1012.2
20260506121803 13 242 0.0 1.6 0.00 0.00 0.00 68 1012.3
20260506120904 12 265 0.0 3.2 0.00 0.00 0.00 69 1012.2
20260506120003 12 276 0.0 3.2 0.00 0.00 0.00 68 1012.0
20260506115403 13 282 0.0 3.2 0.00 0.00 0.00 67 1012.1
20260506114503 13 281 0.0 1.6 0.00 0.00 0.00 68 1012.1
20260506113603 13 81 0.0 3.2 0.00 0.00 0.00 67 1012.0
20260506112703 13 234 0.0 3.2 0.00 0.00 0.00 67 1012.1
20260506111803 13 86 0.0 3.2 0.00 0.00 0.00 67 1012.0
20260506110903 12 251 0.0 3.2 0.00 0.00 0.00 68 1012.0
20260506110216 12 278 0.0 3.2 0.00 0.00 0.00 69 1012.1
20260506105403 12 73 0.0 1.6 0.00 0.00 0.00 69 1011.9
20260506104505 12 294 0.0 3.2 0.00 0.00 0.00 71 1011.9
20260506103817 12 273 0.0 3.2 0.00 0.00 0.00 71 1012.1
20260506102705 12 267 0.0 3.2 0.00 0.00 0.00 71 1012.0
20260506101804 12 270 0.0 3.2 0.00 0.00 0.00 71 1012.0
20260506100903 12 280 0.0 3.2 0.00 0.00 0.00 71 1011.7
20260506100218 12 274 0.0 3.2 0.00 0.00 0.00 73 1012.0
20260506095403 11 270 0.0 3.2 0.00 0.00 0.00 74 1011.9
20260506094504 11 282 0.0 3.2 0.00 0.00 0.00 75 1011.6
20260506093818 11 35 0.0 1.6 0.00 0.00 0.00 79 1011.6
20260506092705 11 262 0.0 3.2 0.00 0.00 0.00 81 1011.6
20260506091803 11 260 0.0 4.8 0.00 0.00 0.00 81 1011.5
20260506090903 11 0 0.0 0.0 0.00 0.00 0.00 83 1011.4
20260506090003 11 270 0.0 1.6 0.00 0.00 0.00 83 1011.5
20260506085403 11 0 0.0 0.0 0.00 0.00 0.00 83 1011.4
20260506084503 11 0 0.0 0.0 0.00 0.00 0.00 83 1011.5
20260506083604 11 262 0.0 3.2 0.00 0.00 0.00 82 1011.4
20260506082703 11 90 0.0 1.6 0.00 0.00 0.00 81 1011.3
20260506081803 11 161 0.0 3.2 0.00 0.00 0.00 81 1011.3
20260506080905 11 93 0.0 1.6 0.00 0.00 0.00 81 1011.3
20260506072703 11 67 0.0 3.2 0.00 0.00 0.00 82 1011.0
20260506071804 11 55 0.0 1.6 0.00 0.00 0.00 82 1011.1
20260506070905 11 78 0.0 1.6 0.00 0.00 0.00 82 1011.1
20260506061804 10 85 0.0 3.2 0.00 0.00 0.00 82 1010.6
20260506060903 10 90 0.0 1.6 0.00 0.00 0.00 82 1010.7
20260506050903 10 66 0.0 1.6 0.00 0.00 0.00 86 1010.4
20260506044503 10 0 0.0 0.0 0.00 0.00 0.00 84 1010.4
20260506043603 10 66 0.0 1.6 0.00 0.00 0.00 84 1010.6
20260506042704 10 67 0.0 1.6 0.00 0.00 0.00 83 1010.6
20260506041803 10 70 0.0 1.6 0.00 0.00 0.00 83 1010.5
20260506040903 10 72 0.0 1.6 0.00 0.00 0.00 83 1010.6
20260506040003 10 65 0.0 1.6 0.00 0.00 0.00 83 1010.6
20260506035405 10 64 0.0 3.2 0.00 0.00 0.00 83 1010.6
20260506034719 10 67 0.0 3.2 0.00 0.00 0.00 83 1010.6
20260506033603 10 66 0.0 1.6 0.00 0.00 0.00 83 1010.7
20260506032704 10 70 0.0 1.6 0.00 0.00 0.00 83 1010.9
20260506031803 10 66 0.0 1.6 0.00 0.00 0.00 83 1011.0
20260506030904 10 66 0.0 1.6 0.00 0.00 0.00 83 1011.1
20260506030217 10 73 0.0 1.6 0.00 0.00 0.00 84 1011.1
20260506025403 10 134 0.0 1.6 0.00 0.00 0.00 84 1011.1
20260506024503 10 0 0.0 0.0 0.00 0.00 0.00 83 1011.2
20260506023603 10 60 0.0 3.2 0.00 0.00 0.00 83 1011.1
20260506022919 10 51 0.0 1.6 0.00 0.00 0.00 84 1011.2
20260506021805 10 0 0.0 0.0 0.00 0.00 0.00 85 1011.4
20260506020904 10 62 0.0 1.6 0.00 0.00 0.00 85 1011.2
20260506020003 10 0 0.0 0.0 0.00 0.00 0.00 85 1011.3
20260506015404 10 69 0.0 1.6 0.00 0.00 0.00 85 1011.3
20260506014503 10 58 0.0 1.6 0.00 0.00 0.00 84 1011.4
20260506013603 10 63 0.0 1.6 0.00 0.00 0.00 84 1011.7
20260506012703 10 63 0.0 1.6 0.00 0.00 0.00 83 1011.7
20260506011805 10 65 0.0 1.6 0.00 0.00 0.00 83 1011.7
20260506010903 10 0 0.0 0.0 0.00 0.00 0.00 83 1011.5
20260506010005 10 69 0.0 1.6 0.00 0.00 0.00 83 1011.8
20260506005405 10 67 0.0 3.2 0.00 0.00 0.00 83 1011.5
20260506004718 10 68 0.0 3.2 0.00 0.00 0.00 83 1011.7
20260506003604 10 81 0.0 3.2 0.00 0.00 0.00 83 1011.7
20260506002704 10 72 0.0 1.6 0.00 0.00 0.00 82 1011.6
20260506002020 10 73 0.0 1.6 0.00 0.00 0.00 83 1011.9
20260506000904 10 66 0.0 1.6 0.00 0.00 0.00 83 1012.0
20260506000003 10 74 0.0 1.6 0.00 0.00 0.00 83 1012.0
20260505235403 10 69 0.0 1.6 0.00 0.00 0.00 83 1012.0
20260505234503 10 57 0.0 1.6 0.00 0.00 0.00 83 1012.0
20260505233603 10 0 0.0 0.0 0.00 0.00 0.00 82 1012.3
20260505232704 10 62 0.0 1.6 0.00 0.00 0.00 82 1012.3
20260505231803 10 89 0.0 1.6 0.00 0.00 0.00 82 1012.2
20260505231117 10 70 0.0 3.2 0.00 0.00 0.00 82 1012.4
20260505230004 10 98 0.0 1.6 0.00 0.00 0.00 83 1012.5
20260505225404 10 107 0.0 1.6 0.00 0.00 0.00 83 1012.4
20260505224503 10 61 0.0 1.6 0.00 0.00 0.00 84 1012.6
20260505223605 10 78 0.0 3.2 0.00 0.00 0.00 83 1012.5
20260505222920 10 73 0.0 3.2 0.00 0.00 0.00 83 1012.5
20260505222017 10 85 0.0 1.6 0.00 0.00 0.00 83 1012.3
20260505220903 10 76 0.0 1.6 0.00 0.00 0.00 83 1012.3
20260505220003 10 75 0.0 1.6 0.00 0.00 0.00 82 1012.6
20260505215403 10 92 0.0 1.6 0.00 0.00 0.00 82 1012.6
20260505214503 10 83 0.0 1.6 0.00 0.00 0.00 82 1012.5
20260505213603 10 0 0.0 0.0 0.00 0.00 0.00 81 1012.5
20260505212703 10 67 0.0 1.6 0.00 0.00 0.00 80 1012.7
20260505211803 10 74 0.0 3.2 0.00 0.00 0.00 77 1012.7
20260505210904 11 68 0.0 1.6 0.00 0.00 0.00 77 1012.6
20260505210004 11 0 0.0 0.0 0.00 0.00 0.00 77 1012.7
20260505205403 11 63 0.0 1.6 0.00 0.00 0.00 77 1012.7
20260505204503 11 76 0.0 1.6 0.00 0.00 0.00 76 1012.7
20260505203603 11 72 0.0 1.6 0.00 0.00 0.00 76 1012.7
20260505202703 11 66 0.0 3.2 0.00 0.00 0.00 77 1012.8
20260505201803 11 68 0.0 1.6 0.00 0.00 0.00 79 1012.6
20260505201117 11 63 0.0 1.6 0.00 0.00 0.00 79 1012.6
20260505200005 11 77 0.0 1.6 0.00 0.00 0.00 81 1012.4
20260505195403 11 75 0.0 1.6 0.00 0.00 0.00 81 1012.6
20260505194503 11 69 0.0 1.6 0.00 0.00 0.00 81 1012.3
20260505193604 11 77 0.0 1.6 0.00 0.00 0.00 80 1012.4
20260505192704 11 76 0.0 1.6 0.00 0.00 0.00 80 1012.1
20260505191803 11 70 0.0 1.6 0.00 0.00 0.00 80 1012.4
20260505190903 11 71 0.0 1.6 0.00 0.00 0.00 80 1012.2
20260505190003 11 67 0.0 3.2 0.00 0.00 0.00 79 1012.1
20260505185403 11 89 0.0 3.2 0.00 0.00 0.00 79 1012.1
20260505184504 11 82 0.0 1.6 0.00 0.00 0.00 79 1012.0
20260505183603 11 0 0.0 0.0 0.00 0.00 0.00 78 1012.0
20260505182705 11 112 0.0 1.6 0.00 0.00 0.00 78 1012.0
20260505181805 12 95 0.0 1.6 0.00 0.00 0.00 77 1012.0
20260505180905 12 76 0.0 1.6 0.00 0.00 0.00 77 1012.1
20260505180219 11 73 0.0 1.6 0.00 0.00 0.00 77 1012.2
20260505175620 12 15 0.0 3.2 0.00 0.00 0.00 77 1012.2
20260505174504 12 260 0.0 3.2 0.00 0.00 0.00 76 1012.2
20260505173603 12 279 0.0 1.6 0.00 0.00 0.00 75 1012.1
20260505172704 12 254 0.0 3.2 0.00 0.00 0.00 74 1012.0
20260505171803 12 87 0.0 1.6 0.00 0.00 0.00 74 1012.3
20260505170903 12 75 0.0 1.6 0.00 0.00 0.00 74 1012.1
20260505170003 12 84 0.0 3.2 0.00 0.00 0.00 73 1012.0
20260505165403 12 89 0.0 3.2 0.00 0.00 0.00 73 1012.1
20260505164505 12 67 0.0 1.6 0.00 0.00 0.00 73 1012.1
20260505163603 12 281 0.0 3.2 0.00 0.00 0.00 73 1012.1
20260505162703 12 299 0.0 3.2 0.00 0.00 0.00 72 1012.3
20260505161808 13 272 0.0 3.2 0.00 0.00 0.00 70 1012.1
20260505160903 13 271 0.0 1.6 0.00 0.00 0.00 68 1012.2
20260505152705 13 263 1.6 6.4 0.00 0.00 0.00 68 1012.5
20260505151804 13 252 0.0 3.2 0.00 0.00 0.00 67 1012.5
20260505150904 13 269 1.6 4.8 0.00 0.00 0.00 67 1012.2